| time (UTC) | temp C | wind direction | speed KPH | gust KPH | rain 1hr cm | rain 24hr cm | rain mn cm | humidity % | barometer mb |
| 20260506170607 | 15 | 252 | 8.0 | 9.7 | 0.00 | 0.00 | 0.00 | ||
| 20260506165108 | 14 | 242 | 6.4 | 9.7 | 0.00 | 0.00 | 0.00 | ||
| 20260506163609 | 13 | 218 | 8.0 | 4.8 | 0.00 | 0.00 | 0.00 | ||
| 20260506162110 | 15 | 285 | 6.4 | 11.3 | 0.00 | 0.00 | 0.00 | ||
| 20260506160611 | 13 | 278 | 8.0 | 9.7 | 0.00 | 0.00 | 0.00 | ||
| 20260506155112 | 13 | 287 | 6.4 | 4.8 | 0.00 | 0.00 | 0.00 | ||
| 20260506153614 | 12 | 243 | 3.2 | 3.2 | 0.00 | 0.00 | 0.00 | ||
| 20260506152115 | 12 | 287 | 8.0 | 8.0 | 0.00 | 0.00 | 0.00 | ||
| 20260506150616 | 12 | 323 | 8.0 | 4.8 | 0.00 | 0.00 | 0.00 | ||
| 20260506145117 | 13 | 312 | 0.0 | 1.6 | 0.00 | 0.00 | 0.00 | ||
| 20260506143618 | 13 | 174 | 0.0 | 0.0 | 0.00 | 0.00 | 0.00 | ||
| 20260506142120 | 12 | 174 | 0.0 | 0.0 | 0.00 | 0.00 | 0.00 | ||
| 20260506140621 | 8 | 174 | 0.0 | 0.0 | 0.00 | 0.00 | 0.00 | ||
| 20260506135123 | 5 | 174 | 0.0 | 0.0 | 0.00 | 0.00 | 0.00 | ||
| 20260506133624 | 4 | 174 | 0.0 | 0.0 | 0.00 | 0.00 | 0.00 | ||
| 20260506130626 | 4 | 174 | 0.0 | 0.0 | 0.00 | 0.00 | 0.00 | ||
| 20260506125128 | 5 | 174 | 0.0 | 0.0 | 0.00 | 0.00 | 0.00 | ||
| 20260506123629 | 5 | 174 | 0.0 | 0.0 | 0.00 | 0.00 | 0.00 | ||
| 20260506122131 | 3 | 174 | 0.0 | 0.0 | 0.00 | 0.00 | 0.00 | ||
| 20260506120632 | 3 | 174 | 0.0 | 0.0 | 0.00 | 0.00 | 0.00 | ||
| 20260506115133 | 3 | 174 | 0.0 | 0.0 | 0.00 | 0.00 | 0.00 | ||
| 20260506113634 | 3 | 174 | 0.0 | 0.0 | 0.00 | 0.00 | 0.00 | ||
| 20260506112135 | 3 | 174 | 0.0 | 0.0 | 0.00 | 0.00 | 0.00 | ||
| 20260506105137 | 4 | 174 | 0.0 | 0.0 | 0.00 | 0.00 | 0.00 | ||
| 20260506102140 | 5 | 174 | 0.0 | 0.0 | 0.00 | 0.00 | 0.00 | ||
| 20260506100641 | 3 | 174 | 0.0 | 0.0 | 0.00 | 0.00 | 0.00 | ||
| 20260506095142 | 5 | 174 | 0.0 | 0.0 | 0.00 | 0.00 | 0.00 | ||
| 20260506093643 | 6 | 174 | 0.0 | 0.0 | 0.00 | 0.00 | 0.00 | ||
| 20260506092145 | 7 | 174 | 0.0 | 0.0 | 0.00 | 0.00 | 0.00 | ||
| 20260506090646 | 8 | 174 | 0.0 | 0.0 | 0.00 | 0.00 | 0.00 | ||
| 20260506085147 | 8 | 174 | 0.0 | 0.0 | 0.00 | 0.00 | 0.00 | ||
| 20260506083648 | 8 | 215 | 0.0 | 0.0 | 0.00 | 0.00 | 0.00 | ||
| 20260506082149 | 8 | 193 | 0.0 | 0.0 | 0.00 | 0.00 | 0.00 | ||
| 20260506080650 | 8 | 193 | 0.0 | 0.0 | 0.00 | 0.00 | 0.00 | ||
| 20260506072153 | 9 | 193 | 0.0 | 0.0 | 0.00 | 0.00 | 0.00 | ||
| 20260506070655 | 9 | 198 | 1.6 | 0.0 | 0.00 | 0.00 | 0.00 | ||
| 20260506062158 | 10 | 169 | 3.2 | 3.2 | 0.00 | 0.00 | 0.00 | ||
| 20260506060700 | 10 | 184 | 6.4 | 3.2 | 0.00 | 0.00 | 0.00 | ||
| 20260506050705 | 10 | 179 | 0.0 | 0.0 | 0.00 | 0.00 | 0.00 | ||
| 20260506043708 | 10 | 207 | 1.6 | 0.0 | 0.00 | 0.00 | 0.00 | ||
| 20260506042208 | 10 | 193 | 0.0 | 0.0 | 0.00 | 0.00 | 0.00 | ||
| 20260506040709 | 10 | 193 | 0.0 | 0.0 | 0.00 | 0.00 | 0.00 | ||
| 20260506035211 | 9 | 166 | 0.0 | 0.0 | 0.00 | 0.00 | 0.00 | ||
| 20260506033712 | 9 | 203 | 1.6 | 0.0 | 0.00 | 0.00 | 0.00 | ||
| 20260506032213 | 10 | 193 | 0.0 | 0.0 | 0.00 | 0.00 | 0.00 | ||
| 20260506030714 | 11 | 257 | 1.6 | 0.0 | 0.00 | 0.00 | 0.00 | ||
| 20260506023716 | 12 | 214 | 0.0 | 0.0 | 0.00 | 0.00 | 0.00 | ||
| 20260506022217 | 12 | 224 | 3.2 | 1.6 | 0.00 | 0.00 | 0.00 | ||
| 20260506020718 | 11 | 214 | 3.2 | 3.2 | 0.00 | 0.00 | 0.00 | ||
| 20260506015219 | 11 | 249 | 8.0 | 6.4 | 0.00 | 0.00 | 0.00 | ||
| 20260506013720 | 11 | 252 | 4.8 | 6.4 | 0.00 | 0.00 | 0.00 | ||
| 20260506005222 | 18 | 167 | 8.0 | 4.8 | 0.00 | 0.00 | 0.00 | ||
| 20260506002224 | 17 | 262 | 22.5 | 25.7 | 0.00 | 0.00 | 0.00 | ||
| 20260506000725 | 17 | 252 | 12.9 | 17.7 | 0.00 | 0.00 | 0.00 | ||
| 20260505235226 | 18 | 280 | 14.5 | 17.7 | 0.00 | 0.00 | 0.00 | ||
| 20260505233726 | 18 | 240 | 20.9 | 22.5 | 0.00 | 0.00 | 0.00 | ||
| 20260505232227 | 20 | 311 | 16.1 | 11.3 | 0.00 | 0.00 | 0.00 | ||
| 20260505230728 | 20 | 271 | 16.1 | 22.5 | 0.00 | 0.00 | 0.00 | ||
| 20260505225228 | 21 | 262 | 17.7 | 14.5 | 0.00 | 0.00 | 0.00 | ||
| 20260505223729 | 21 | 240 | 14.5 | 24.1 | 0.00 | 0.00 | 0.00 | ||
| 20260505222230 | 20 | 183 | 22.5 | 19.3 | 0.00 | 0.00 | 0.00 | ||
| 20260505220730 | 21 | 280 | 17.7 | 17.7 | 0.00 | 0.00 | 0.00 | ||
| 20260505205234 | 20 | 278 | 17.7 | 25.7 | 0.00 | 0.00 | 0.00 | ||
| 20260505203735 | 20 | 249 | 14.5 | 16.1 | 0.00 | 0.00 | 0.00 | ||
| 20260505202236 | 18 | 243 | 11.3 | 16.1 | 0.00 | 0.00 | 0.00 | ||
| 20260505192240 | 17 | 255 | 14.5 | 22.5 | 0.00 | 0.00 | 0.00 | ||
| 20260505185242 | 17 | 321 | 11.3 | 6.4 | 0.00 | 0.00 | 0.00 | ||
| 20260505183742 | 16 | 280 | 12.9 | 11.3 | 0.00 | 0.00 | 0.00 | ||
| 20260505180744 | 15 | 290 | 8.0 | 1.6 | 0.00 | 0.00 | 0.00 | ||
| 20260505175245 | 15 | 305 | 6.4 | 1.6 | 0.00 | 0.00 | 0.00 | ||
| 20260505173746 | 13 | 271 | 9.7 | 9.7 | 0.00 | 0.00 | 0.00 |